Location: Hains Lake
(37.8540°N, 99.8578°W)
Time: 22:11:00
(UTC+00:00)

Explorer 7 - Pass Details

Date: 25 April 2021
Orbit: 484 x 677 km, 50.3° (Epoch: 13 May)

Event Time Altitude Azimuth Distance (km) Brightness Sun altitude
Rises 03:15:37 0° 296° (WNW) 2,653 11.8 -20.4°
Reaches altitude 10° 03:18:37 10° 321° (NW) 1,804 10.5 -20.9°
Maximum altitude 03:21:02 15° 357° (N) 1,543 9.6 -21.3°
Drops below altitude 10° 03:23:31 10° 33° (NNE) 1,875 9.6 -21.6°
Enters shadow 03:25:05 - 47° (NE) 2,294 9.9 -21.9°
